Karlovy Vary, Czech Republic

9:49 PM CEST on May 25, 2018 (GMT +0200)
Karlovy Vary

Weather History for LKKV - January, 2013

Change the Weather History Date:

Monday, January 21, 2013

  Actual Average (EDQM) Record (EDQM)
Temperature  
Mean Temperature 22 °F -  
Max Temperature 24 °F 32 °F 44 °F (1999)
Min Temperature 21 °F 25 °F 17 °F (2013)
Degree Days  
Heating Degree Days 42    
Moisture  
Dew Point 22 °F    
Average Humidity 94    
Maximum Humidity 100    
Minimum Humidity 86    
Precipitation  
Precipitation 0.00 in - - ()
Sea Level Pressure  
Sea Level Pressure 29.40 in    
Wind  
Wind Speed 3 mph ()    
Max Wind Speed 7 mph    
Max Gust Speed -    
Visibility 2.1 miles    
Events Fog , Snow    
Averages and records for this station are not official NWS values.
T = Trace of Precipitation, MM = Missing Value Source: Averaged Metar Reports

Daily Weather History Graph

Daily Weather History Graph

Search for Another Location

Airport or City:

Astronomy

Jan. 21, 2013 Rise Set
Actual Time 7:56 AM CET 4:43 PM CET
Civil Twilight 7:19 AM CET 5:20 PM CET
Nautical Twilight 6:39 AM CET 6:00 PM CET
Astronomical Twilight 6:01 AM CET 6:38 PM CET
Moon 12:10 PM CET (1/21) 3:08 AM CET (1/21)
Length of Visible Light 10h 00m
Length of Day
8h 47m
Waxing Gibbous, 73% of the Moon is Illuminated
Jan 21
Waxing Gibbous
Jan 27
Full
Feb 3
Last Quarter
Feb 10
New
Feb 17
First Quarter

Hourly Weather History & Observations

Time (CET) Temp. Windchill Dew Point Humidity Pressure Visibility Wind Dir Wind Speed Gust Speed Precip Events Conditions
12:00 AM 21.2 °F - 19.4 °F 93% 29.36 in 3.7 mi Variable 2.3 mph - N/A Snow Light Snow
1:00 AM 23.0 °F 17.0 °F 21.2 °F 93% 29.36 in 3.7 mi NNE 4.6 mph - N/A Snow Light Snow
2:00 AM 23.0 °F 15.8 °F 21.2 °F 93% 29.36 in 3.1 mi NNE 5.8 mph - N/A Snow Light Snow
3:00 AM 23.0 °F 15.8 °F 21.2 °F 93% 29.36 in 4.3 mi NE 5.8 mph - N/A   Overcast
4:00 AM 23.0 °F 14.7 °F 21.2 °F 93% 29.36 in 1.6 mi NE 6.9 mph - N/A   Overcast
5:00 AM 23.0 °F - 21.2 °F 93% 29.36 in 0.9 mi Variable 2.3 mph - N/A   Overcast
6:00 AM 23.0 °F - 21.2 °F 93% 29.39 in 0.4 mi Variable 2.3 mph - N/A Fog Light Freezing Fog
7:00 AM 23.0 °F 18.4 °F 21.2 °F 93% 29.36 in 0.2 mi North 3.5 mph - N/A Fog Light Freezing Fog
7:30 AM 23.0 °F 18.4 °F 21.2 °F 93% 29.36 in 0.4 mi NNE 3.5 mph - N/A Fog Light Freezing Fog
8:00 AM 23.0 °F 17.0 °F 21.2 °F 93% 29.39 in 0.6 mi ENE 4.6 mph - N/A Fog Light Freezing Fog
8:30 AM 23.0 °F 15.8 °F 23.0 °F 100% 29.39 in 1.1 mi East 5.8 mph - N/A   Overcast
9:00 AM 23.0 °F 18.4 °F 23.0 °F 100% 29.39 in 1.4 mi ESE 3.5 mph - N/A   Overcast
9:30 AM 23.0 °F - 23.0 °F 100% 29.39 in 1.6 mi Calm Calm - N/A   Mostly Cloudy
10:00 AM 24.8 °F - 23.0 °F 93% 29.42 in 1.0 mi Variable 2.3 mph - N/A   Overcast
10:30 AM 24.8 °F - 23.0 °F 93% 29.42 in 0.9 mi Variable 2.3 mph - N/A   Overcast
11:00 AM 24.8 °F - 23.0 °F 93% 29.39 in 0.7 mi NW 2.3 mph - N/A   Overcast
11:22 AM 24.8 °F 20.5 °F 23.0 °F 93% 29.42 in 0.2 mi WNW 3.5 mph - N/A Fog Light Freezing Fog
11:30 AM 24.8 °F 20.5 °F 23.0 °F 93% 29.42 in 0.2 mi WNW 3.5 mph - N/A Fog Light Freezing Fog
12:00 PM 24.8 °F 20.5 °F 23.0 °F 93% 29.39 in 0.2 mi NW 3.5 mph - N/A Fog Light Freezing Fog
12:12 PM 24.8 °F 20.5 °F 23.0 °F 93% 29.39 in 0.3 mi NW 3.5 mph - N/A Fog , Snow Light Snow
12:30 PM 24.8 °F - 23.0 °F 93% 29.39 in 0.6 mi Variable 2.3 mph - N/A Fog , Snow Light Snow
12:46 PM 24.8 °F - 23.0 °F 93% 29.39 in 0.7 mi NW 2.3 mph - N/A Snow Light Snow
1:00 PM 24.8 °F - 23.0 °F 93% 29.39 in 0.7 mi NW 1.2 mph - N/A Snow Light Snow
1:30 PM 24.8 °F - 24.8 °F 100% 29.39 in 1.4 mi NW 2.3 mph - N/A Snow Light Snow
2:00 PM 24.8 °F 19.1 °F 24.8 °F 100% 29.39 in 0.9 mi WNW 4.6 mph - N/A Snow Light Snow
2:30 PM 24.8 °F 19.1 °F 24.8 °F 100% 29.39 in 1.0 mi WNW 4.6 mph - N/A Snow Light Snow
3:00 PM 24.8 °F 19.1 °F 24.8 °F 100% 29.39 in - West 4.6 mph - N/A Snow Light Snow
3:30 PM 24.8 °F 20.5 °F 23.0 °F 93% 29.39 in 3.1 mi WSW 3.5 mph - N/A   Scattered Clouds
4:00 PM 24.8 °F 20.5 °F 23.0 °F 93% 29.39 in 3.1 mi WSW 3.5 mph - N/A   Scattered Clouds
4:30 PM 24.8 °F - 23.0 °F 93% 29.42 in 3.1 mi SW 2.3 mph - N/A   Mostly Cloudy
5:00 PM 24.8 °F - 23.0 °F 93% 29.42 in 4.3 mi West 2.3 mph - N/A   Mostly Cloudy
5:30 PM 24.8 °F - 23.0 °F 93% 29.42 in 4.3 mi Variable 2.3 mph - N/A Snow Light Snow
6:00 PM 24.8 °F 20.5 °F 23.0 °F 93% 29.42 in 3.1 mi West 3.5 mph - N/A Snow Light Snow
6:30 PM 24.8 °F 20.5 °F 23.0 °F 93% 29.42 in 3.1 mi WSW 3.5 mph - N/A Snow Light Snow
7:00 PM 23.0 °F 18.4 °F 23.0 °F 100% 29.44 in 2.5 mi WSW 3.5 mph - N/A Snow Light Snow
7:30 PM 23.0 °F 17.0 °F 21.2 °F 93% 29.44 in 3.7 mi West 4.6 mph - N/A   Overcast
8:00 PM 23.0 °F - 21.2 °F 93% 29.44 in 4.3 mi Variable 2.3 mph - N/A Snow Light Snow
8:30 PM 23.0 °F 15.8 °F 21.2 °F 93% 29.44 in 3.7 mi West 5.8 mph - N/A   Mostly Cloudy
9:00 PM 23.0 °F 17.0 °F 19.4 °F 86% 29.47 in 3.7 mi West 4.6 mph - N/A   Mostly Cloudy
9:30 PM 23.0 °F - 21.2 °F 93% 29.47 in 3.7 mi Calm Calm - N/A Snow Light Snow
10:00 PM 23.0 °F - 21.2 °F 93% 29.47 in 2.5 mi WSW 2.3 mph - N/A Snow Light Snow
11:00 PM 23.0 °F 18.4 °F 19.4 °F 86% 29.47 in 4.3 mi West 3.5 mph - N/A   Overcast